QPF
0.00 0.01 0.01 0.01 0.02 0.02 0.02 0.02 0.02 0.04 0.09 0.19 0.21 0.20 0.24 0.25 0.24 0.21 0.23 0.23 0.23 0.22 0.22 0.21 0.20 0.17 0.15 0.12 0.09 0.07 0.06 0.05 0.05 0.04 0.03 0.03 0.03 0.03 0.02 0.01 0.01 0.01 0.01
0.00 0.00 0.01 0.01 0.02 0.02 0.03 0.03 0.04 0.08 0.16 0.25 0.29 0.32 0.34 0.33 0.37 0.36 0.35 0.34 0.32 0.32 0.32 0.27 0.26 0.22 0.18 0.14 0.11 0.10 0.09 0.07 0.06 0.05 0.03 0.03 0.03 0.02 0.01 0.01 0.01 0.01 0.01
0.01 0.01 0.01 0.02 0.03 0.04 0.04 0.05 0.06 0.13 0.25 0.33 0.37 0.40 0.40 0.40 0.39 0.38 0.40 0.42 0.43 0.43 0.39 0.35 0.29 0.25 0.19 0.16 0.14 0.12 0.09 0.07 0.07 0.06 0.04 0.04 0.03 0.02 0.02 0.02 0.01 0.01 0.01
0.02 0.03 0.03 0.04 0.05 0.06 0.06 0.06 0.08 0.12 0.20 0.32 0.44 0.49 0.49 0.51 0.51 0.50 0.50 0.50 0.46 0.40 0.37 0.32 0.29 0.25 0.20 0.16 0.13 0.10 0.08 0.07 0.06 0.04 0.03 0.03 0.02 0.02 0.02 0.01 0.01 0.00 0.00
0.03 0.04 0.04 0.05 0.05 0.06 0.08 0.08 0.10 0.14 0.20 0.28 0.42 0.52 0.59 0.62 0.59 0.53 0.52 0.51 0.41 0.33 0.29 0.25 0.23 0.21 0.17 0.14 0.11 0.09 0.08 0.08 0.08 0.06 0.04 0.03 0.03 0.02 0.02 0.01 0.01 0.00 0.00
0.05 0.06 0.05 0.06 0.07 0.08 0.09 0.12 0.17 0.22 0.27 0.36 0.46 0.52 0.54 0.54 0.50 0.46 0.40 0.37 0.31 0.27 0.24 0.20 0.17 0.14 0.13 0.12 0.11 0.10 0.10 0.09 0.06 0.04 0.03 0.02 0.02 0.02 0.01 0.01 0.00 0.00 0.00
0.06 0.06 0.08 0.11 0.13 0.13 0.15 0.17 0.23 0.30 0.34 0.40 0.45 0.46 0.45 0.44 0.43 0.43 0.39 0.32 0.27 0.22 0.19 0.16 0.12 0.09 0.08 0.08 0.06 0.05 0.04 0.03 0.02 0.02 0.02 0.02 0.02 0.01 0.01 0.00 0.00 0.00 0.00
0.06 0.08 0.11 0.13 0.15 0.17 0.19 0.23 0.29 0.35 0.37 0.36 0.39 0.39 0.35 0.35 0.36 0.35 0.30 0.25 0.22 0.18 0.13 0.09 0.06 0.04 0.03 0.03 0.02 0.02 0.03 0.03 0.03 0.03 0.02 0.02 0.01 0.01 0.00 0.00 0.00 0.00 0.00
0.06 0.08 0.09 0.10 0.12 0.16 0.20 0.23 0.27 0.33 0.32 0.29 0.27 0.27 0.28 0.28 0.26 0.23 0.19 0.17 0.13 0.09 0.06 0.03 0.02 0.01 0.01 0.02 0.03 0.03 0.03 0.02 0.02 0.02 0.01 0.01 0.01 0.00 0.00 0.00 0.00 0.00 0.00
0.04 0.05 0.07 0.10 0.11 0.12 0.14 0.16 0.18 0.22 0.24 0.23 0.21 0.20 0.20 0.18 0.16 0.14 0.12 0.10 0.09 0.06 0.04 0.03 0.02 0.01 0.01 0.01 0.01 0.01 0.00 0.00 0.00 0.00 0.00 0.00 0.00 0.00 0.00 0.00 0.00 0.00 0.00
0.03 0.04 0.05 0.05 0.06 0.07 0.08 0.09 0.11 0.13 0.13 0.14 0.14 0.14 0.13 0.13 0.12 0.11 0.08 0.07 0.05 0.04 0.02 0.02 0.01 0.01 0.00 0.00 0.00 0.00 0.00 0.00 0.00 0.00 0.00 0.00 0.00 0.00 0.00 0.00 0.00 0.00 0.00
0.07 0.07 0.07 0.07 0.05 0.05 0.06 0.07 0.09 0.10 0.10 0.09 0.08 0.09 0.08 0.07 0.06 0.06 0.05 0.04 0.03 0.02 0.02 0.01 0.01 0.01 0.00 0.00 0.00 0.00 0.00 0.00 0.00 0.00 0.00 0.00 0.00 0.00 0.00 0.00 0.00 0.00 0.00
0.12 0.11 0.11 0.09 0.07 0.06 0.06 0.06 0.06 0.07 0.08 0.08 0.07 0.06 0.06 0.05 0.04 0.04 0.04 0.04 0.03 0.03 0.02 0.02 0.01 0.01 0.01 0.01 0.00 0.00 0.00 0.00 0.00 0.00 0.00 0.00 0.00 0.00 0.00 0.00 0.00 0.00 0.00
0.11 0.12 0.12 0.11 0.10 0.08 0.07 0.06 0.06 0.05 0.05 0.06 0.05 0.05 0.04 0.04 0.03 0.03 0.02 0.02 0.02 0.02 0.02 0.02 0.02 0.01 0.01 0.00 0.00 0.00 0.00 0.00 0.00 0.00 0.00 0.00 0.00 0.00 0.00 0.00 0.00 0.00 0.00
0.09 0.09 0.10 0.10 0.11 0.10 0.09 0.09 0.08 0.07 0.05 0.05 0.05 0.05 0.05 0.05 0.04 0.03 0.03 0.03 0.03 0.02 0.01 0.01 0.01 0.00 0.00 0.00 0.00 0.00 0.00 0.00 0.00 0.00 0.00 0.00 0.00 0.00 0.00 0.00 0.00 0.00 0.00
0.10 0.09 0.09 0.08 0.08 0.07 0.08 0.08 0.08 0.08 0.07 0.06 0.06 0.05 0.04 0.03 0.03 0.02 0.01 0.01 0.01 0.00 0.00 0.00 0.00 0.00 0.00 0.00 0.00 0.00 0.00 0.00 0.00 0.00 0.00 0.00 0.00 0.00 0.00 0.00 0.00 0.00 0.00
0.09 0.09 0.10 0.10 0.09 0.07 0.07 0.07 0.08 0.07 0.05 0.04 0.03 0.02 0.01 0.01 0.01 0.00 0.00 0.00 0.00 0.00 0.00 0.00 0.00 0.00 0.00 0.00 0.00 0.00 0.00 0.00 0.00 0.00 0.00 0.00 0.00 0.00 0.00 0.00 0.00 0.00 0.00
0.12 0.11 0.09 0.08 0.08 0.07 0.06 0.05 0.04 0.03 0.02 0.01 0.01 0.00 0.00 0.00 0.00 0.00 0.00 0.00 0.01 0.01 0.01 0.01 0.00 0.00 0.00 0.00 0.00 0.00 0.00 0.00 0.00 0.00 0.00 0.00 0.00 0.00 0.00 0.00 0.00 0.00 0.00
0.10 0.08 0.07 0.05 0.05 0.04 0.03 0.02 0.01 0.00 0.00 0.00 0.00 0.00 0.00 0.00 0.00 0.00 0.00 0.00 0.00 0.01 0.01 0.01 0.01 0.01 0.00 0.00 0.00 0.00 0.00 0.00 0.00 0.00 0.00 0.00 0.00 0.00 0.00 0.00 0.00 0.00 0.01
0.05 0.06 0.06 0.04 0.03 0.02 0.02 0.01 0.01 0.01 0.00 0.00 0.00 0.00 0.00 0.00 0.00 0.00 0.00 0.00 0.00 0.01 0.01 0.02 0.02 0.01 0.00 0.00 0.00 0.00 0.00 0.00 0.00 0.00 0.00 0.00 0.00 0.00 0.00 0.00 0.00 0.01 0.01
0.03 0.05 0.05 0.04 0.03 0.02 0.01 0.01 0.01 0.00 0.00 0.00 0.01 0.00 0.00 0.00 0.00 0.00 0.00 0.00 0.00 0.00 0.00 0.01 0.01 0.01 0.00 0.00 0.00 0.00 0.00 0.00 0.00 0.00 0.00 0.00 0.00 0.00 0.01 0.01 0.01 0.01 0.01
0.02 0.04 0.04 0.04 0.02 0.01 0.00 0.00 0.00 0.00 0.00 0.01 0.00 0.00 0.00 0.00 0.00 0.00 0.00 0.00 0.00 0.00 0.00 0.00 0.00 0.00 0.00 0.00 0.00 0.00 0.00 0.00 0.00 0.00 0.00 0.00 0.00 0.01 0.01 0.01 0.01 0.01 0.02
0.01 0.01 0.01 0.01 0.01 0.00 0.00 0.00 0.00 0.00 0.00 0.00 0.00 0.00 0.00 0.00 0.00 0.00 0.00 0.00 0.00 0.00 0.00 0.00 0.00 0.00 0.00 0.00 0.00 0.00 0.00 0.00 0.00 0.00 0.00 0.01 0.01 0.01 0.01 0.01 0.01 0.02 0.01
0.00 0.00 0.00 0.00 0.00 0.00 0.00 0.00 0.00 0.00 0.00 0.00 0.00 0.00 0.00 0.00 0.00 0.00 0.00 0.00 0.00 0.00 0.00 0.00 0.00 0.00 0.00 0.00 0.00 0.00 0.00 0.00 0.00 0.01 0.01 0.01 0.01 0.01 0.01 0.01 0.01 0.01 0.00
0.00 0.00 0.00 0.00 0.00 0.00 0.00 0.00 0.00 0.00 0.00 0.00 0.00 0.00 0.00 0.00 0.00 0.00 0.00 0.00 0.00 0.00 0.00 0.00 0.00 0.00 0.00 0.00 0.00 0.00 0.00 0.00 0.01 0.02 0.02 0.01 0.01 0.02 0.01 0.01 0.01 0.00 0.00
0.00 0.00 0.00 0.00 0.00 0.00 0.00 0.00 0.00 0.00 0.00 0.00 0.00 0.00 0.00 0.00 0.00 0.00 0.00 0.00 0.00 0.00 0.00 0.00 0.00 0.00 0.00 0.00 0.00 0.00 0.00 0.01 0.02 0.02 0.02 0.02 0.02 0.02 0.02 0.01 0.01 0.00 0.00
MSLP
1010.04 1010.30 1010.55 1010.74 1010.87 1010.94 1010.99 1011.08 1011.28 1011.61 1012.11 1012.76 1013.52 1014.32 1015.10 1015.79 1016.34 1016.74 1016.99 1017.12 1017.19 1017.23 1017.32 1017.47 1017.70 1018.01 1018.39 1018.82 1019.26 1019.69 1020.11 1020.50 1020.85 1021.16 1021.43 1021.67 1021.86 1022.00 1022.10 1022.15 1022.17 1022.18 1022.17
1010.25 1010.47 1010.67 1010.80 1010.85 1010.83 1010.79 1010.80 1010.92 1011.22 1011.70 1012.37 1013.18 1014.06 1014.93 1015.72 1016.37 1016.86 1017.18 1017.37 1017.47 1017.54 1017.62 1017.76 1017.97 1018.25 1018.60 1018.99 1019.40 1019.81 1020.22 1020.61 1020.97 1021.30 1021.60 1021.86 1022.08 1022.24 1022.36 1022.42 1022.44 1022.44 1022.43
1010.63 1010.83 1010.99 1011.08 1011.06 1010.97 1010.86 1010.79 1010.86 1011.12 1011.58 1012.26 1013.10 1014.04 1014.98 1015.85 1016.59 1017.16 1017.56 1017.81 1017.96 1018.05 1018.14 1018.25 1018.43 1018.66 1018.95 1019.28 1019.64 1020.01 1020.38 1020.75 1021.10 1021.44 1021.76 1022.04 1022.27 1022.46 1022.59 1022.66 1022.70 1022.70 1022.69
1011.21 1011.39 1011.53 1011.59 1011.53 1011.40 1011.24 1011.13 1011.15 1011.37 1011.81 1012.48 1013.33 1014.29 1015.28 1016.21 1017.01 1017.65 1018.12 1018.43 1018.62 1018.73 1018.81 1018.91 1019.05 1019.22 1019.45 1019.71 1020.00 1020.31 1020.64 1020.97 1021.31 1021.64 1021.96 1022.25 1022.50 1022.70 1022.84 1022.93 1022.98 1022.99 1022.99
1011.96 1012.14 1012.28 1012.32 1012.25 1012.10 1011.92 1011.78 1011.78 1011.97 1012.39 1013.03 1013.87 1014.82 1015.82 1016.77 1017.61 1018.29 1018.80 1019.15 1019.37 1019.50 1019.59 1019.66 1019.76 1019.89 1020.05 1020.25 1020.48 1020.73 1021.01 1021.31 1021.62 1021.94 1022.25 1022.54 1022.79 1023.00 1023.16 1023.25 1023.31 1023.33 1023.33
1012.84 1013.03 1013.17 1013.22 1013.17 1013.02 1012.84 1012.71 1012.69 1012.86 1013.25 1013.86 1014.66 1015.58 1016.54 1017.48 1018.31 1019.00 1019.53 1019.90 1020.15 1020.29 1020.38 1020.45 1020.52 1020.62 1020.74 1020.89 1021.07 1021.28 1021.52 1021.78 1022.06 1022.36 1022.65 1022.93 1023.17 1023.38 1023.53 1023.63 1023.68 1023.70 1023.71
1013.79 1013.99 1014.15 1014.23 1014.19 1014.08 1013.93 1013.81 1013.80 1013.96 1014.32 1014.88 1015.62 1016.48 1017.39 1018.28 1019.08 1019.75 1020.27 1020.64 1020.90 1021.06 1021.15 1021.22 1021.29 1021.37 1021.47 1021.59 1021.74 1021.92 1022.13 1022.36 1022.62 1022.88 1023.14 1023.40 1023.62 1023.80 1023.94 1024.03 1024.08 1024.10 1024.09
1014.74 1014.96 1015.15 1015.25 1015.25 1015.18 1015.07 1014.98 1014.99 1015.15 1015.49 1016.01 1016.68 1017.47 1018.29 1019.11 1019.84 1020.47 1020.96 1021.33 1021.59 1021.76 1021.87 1021.95 1022.03 1022.11 1022.21 1022.33 1022.47 1022.63 1022.82 1023.02 1023.24 1023.46 1023.69 1023.90 1024.08 1024.24 1024.35 1024.42 1024.46 1024.47 1024.45
1015.63 1015.88 1016.09 1016.22 1016.27 1016.25 1016.19 1016.15 1016.20 1016.37 1016.69 1017.16 1017.77 1018.47 1019.21 1019.93 1020.59 1021.16 1021.61 1021.96 1022.21 1022.40 1022.53 1022.64 1022.74 1022.84 1022.96 1023.09 1023.22 1023.37 1023.53 1023.70 1023.88 1024.05 1024.22 1024.37 1024.51 1024.62 1024.70 1024.75 1024.77 1024.77 1024.74
1016.44 1016.71 1016.94 1017.11 1017.20 1017.23 1017.24 1017.26 1017.35 1017.54 1017.86 1018.30 1018.85 1019.46 1020.11 1020.74 1021.32 1021.82 1022.23 1022.56 1022.81 1023.00 1023.16 1023.29 1023.42 1023.56 1023.69 1023.83 1023.97 1024.10 1024.24 1024.36 1024.48 1024.59 1024.69 1024.78 1024.85 1024.91 1024.95 1024.97 1024.98 1024.96 1024.91
1017.16 1017.45 1017.71 1017.91 1018.05 1018.14 1018.21 1018.30 1018.44 1018.67 1018.99 1019.41 1019.90 1020.45 1021.01 1021.56 1022.05 1022.49 1022.85 1023.16 1023.40 1023.61 1023.78 1023.94 1024.10 1024.26 1024.41 1024.55 1024.68 1024.79 1024.88 1024.95 1025.01 1025.04 1025.06 1025.07 1025.07 1025.07 1025.07 1025.06 1025.04 1025.01 1024.95
1017.83 1018.14 1018.41 1018.65 1018.83 1018.98 1019.13 1019.29 1019.49 1019.76 1020.09 1020.50 1020.95 1021.44 1021.92 1022.39 1022.81 1023.19 1023.51 1023.79 1024.02 1024.23 1024.42 1024.60 1024.77 1024.93 1025.09 1025.22 1025.32 1025.40 1025.45 1025.45 1025.43 1025.39 1025.32 1025.25 1025.18 1025.12 1025.06 1025.02 1024.98 1024.93 1024.86
1018.47 1018.80 1019.10 1019.36 1019.59 1019.80 1020.02 1020.25 1020.51 1020.82 1021.18 1021.58 1022.00 1022.43 1022.85 1023.25 1023.61 1023.93 1024.21 1024.46 1024.68 1024.88 1025.07 1025.25 1025.41 1025.57 1025.71 1025.81 1025.89 1025.92 1025.91 1025.85 1025.75 1025.63 1025.49 1025.33 1025.19 1025.06 1024.95 1024.86 1024.79 1024.72 1024.63
1019.12 1019.47 1019.80 1020.09 1020.37 1020.64 1020.91 1021.21 1021.53 1021.88 1022.26 1022.65 1023.04 1023.43 1023.79 1024.13 1024.43 1024.69 1024.93 1025.15 1025.34 1025.52 1025.69 1025.85 1026.00 1026.13 1026.24 1026.31 1026.33 1026.32 1026.25 1026.13 1025.97 1025.78 1025.56 1025.34 1025.12 1024.93 1024.76 1024.63 1024.51 1024.41 1024.30
1019.80 1020.18 1020.53 1020.85 1021.17 1021.49 1021.83 1022.18 1022.55 1022.93 1023.31 1023.69 1024.05 1024.39 1024.70 1024.98 1025.22 1025.44 1025.63 1025.80 1025.97 1026.12 1026.26 1026.38 1026.49 1026.58 1026.65 1026.67 1026.65 1026.59 1026.47 1026.31 1026.09 1025.85 1025.57 1025.29 1025.01 1024.76 1024.53 1024.34 1024.17 1024.02 1023.87
1020.52 1020.92 1021.29 1021.65 1022.01 1022.37 1022.75 1023.14 1023.54 1023.93 1024.31 1024.67 1025.00 1025.28 1025.53 1025.75 1025.94 1026.10 1026.25 1026.38 1026.50 1026.61 1026.71 1026.80 1026.86 1026.90 1026.91 1026.89 1026.83 1026.72 1026.57 1026.37 1026.13 1025.85 1025.53 1025.21 1024.88 1024.56 1024.27 1024.01 1023.78 1023.57 1023.38
1021.28 1021.70 1022.09 1022.47 1022.85 1023.24 1023.65 1024.05 1024.46 1024.85 1025.21 1025.53 1025.81 1026.05 1026.24 1026.40 1026.53 1026.65 1026.75 1026.84 1026.92 1026.98 1027.03 1027.07 1027.08 1027.07 1027.03 1026.97 1026.87 1026.74 1026.57 1026.35 1026.09 1025.79 1025.46 1025.09 1024.72 1024.35 1023.99 1023.66 1023.36 1023.09 1022.84
1022.06 1022.48 1022.89 1023.28 1023.67 1024.07 1024.48 1024.89 1025.28 1025.64 1025.96 1026.24 1026.46 1026.63 1026.77 1026.87 1026.96 1027.03 1027.09 1027.15 1027.19 1027.21 1027.22 1027.21 1027.17 1027.11 1027.03 1026.93 1026.80 1026.65 1026.47 1026.25 1025.99 1025.68 1025.33 1024.95 1024.54 1024.12 1023.70 1023.30 1022.93 1022.58 1022.27
1022.84 1023.26 1023.66 1024.05 1024.44 1024.83 1025.22 1025.60 1025.96 1026.27 1026.54 1026.75 1026.91 1027.03 1027.11 1027.17 1027.22 1027.26 1027.29 1027.32 1027.33 1027.33 1027.30 1027.25 1027.17 1027.07 1026.95 1026.82 1026.67 1026.51 1026.32 1026.10 1025.84 1025.53 1025.17 1024.77 1024.33 1023.86 1023.38 1022.92 1022.48 1022.07 1021.70
1023.60 1024.01 1024.39 1024.76 1025.13 1025.49 1025.84 1026.17 1026.47 1026.73 1026.93 1027.08 1027.18 1027.24 1027.28 1027.31 1027.33 1027.35 1027.37 1027.39 1027.39 1027.37 1027.32 1027.24 1027.14 1027.01 1026.86 1026.70 1026.53 1026.35 1026.15 1025.92 1025.66 1025.34 1024.97 1024.55 1024.07 1023.57 1023.05 1022.53 1022.03 1021.57 1021.15
1024.32 1024.70 1025.05 1025.39 1025.71 1026.02 1026.32 1026.59 1026.83 1027.01 1027.15 1027.24 1027.28 1027.30 1027.31 1027.32 1027.33 1027.35 1027.38 1027.40 1027.40 1027.38 1027.33 1027.24 1027.11 1026.96 1026.79 1026.60 1026.41 1026.20 1025.98 1025.74 1025.45 1025.12 1024.73 1024.28 1023.78 1023.24 1022.69 1022.13 1021.59 1021.10 1020.65
1024.97 1025.31 1025.61 1025.90 1026.17 1026.42 1026.66 1026.86 1027.02 1027.14 1027.22 1027.25 1027.26 1027.25 1027.24 1027.25 1027.27 1027.30 1027.35 1027.39 1027.41 1027.40 1027.35 1027.26 1027.13 1026.96 1026.76 1026.55 1026.33 1026.09 1025.84 1025.56 1025.25 1024.89 1024.47 1023.99 1023.47 1022.90 1022.32 1021.74 1021.19 1020.68 1020.22
1025.52 1025.81 1026.06 1026.29 1026.49 1026.69 1026.85 1026.99 1027.09 1027.15 1027.17 1027.17 1027.15 1027.13 1027.12 1027.13 1027.17 1027.24 1027.31 1027.38 1027.43 1027.44 1027.40 1027.32 1027.18 1027.00 1026.79 1026.55 1026.29 1026.02 1025.72 1025.40 1025.05 1024.65 1024.20 1023.69 1023.15 1022.57 1021.98 1021.39 1020.84 1020.33 1019.88
1025.94 1026.17 1026.37 1026.54 1026.69 1026.81 1026.92 1026.99 1027.04 1027.05 1027.04 1027.01 1026.99 1026.97 1026.98 1027.01 1027.08 1027.18 1027.28 1027.38 1027.46 1027.49 1027.47 1027.39 1027.26 1027.07 1026.84 1026.57 1026.28 1025.97 1025.63 1025.27 1024.87 1024.43 1023.95 1023.42 1022.86 1022.28 1021.69 1021.12 1020.58 1020.09 1019.65
1026.23 1026.41 1026.54 1026.66 1026.75 1026.82 1026.87 1026.89 1026.90 1026.89 1026.86 1026.83 1026.81 1026.81 1026.84 1026.91 1027.01 1027.13 1027.27 1027.39 1027.49 1027.54 1027.53 1027.46 1027.33 1027.14 1026.89 1026.61 1026.29 1025.94 1025.57 1025.17 1024.73 1024.26 1023.75 1023.22 1022.65 1022.08 1021.51 1020.97 1020.45 1019.98 1019.55
1026.38 1026.51 1026.60 1026.66 1026.70 1026.72 1026.73 1026.73 1026.71 1026.69 1026.66 1026.64 1026.64 1026.67 1026.73 1026.82 1026.95 1027.10 1027.25 1027.39 1027.50 1027.56 1027.57 1027.50 1027.37 1027.18 1026.93 1026.64 1026.30 1025.94 1025.54 1025.11 1024.66 1024.17 1023.66 1023.12 1022.57 1022.02 1021.48 1020.96 1020.47 1020.02 1019.60
Thickness
5766 5767 5769 5770 5769 5768 5767 5767 5765 5764 5760 5756 5751 5745 5739 5735 5731 5727 5724 5720 5716 5713 5710 5707 5703 5700 5697 5693 5690 5685 5681 5676 5674 5670 5666 5663 5661 5659 5657 5655 5653 5650 5648
5755 5759 5761 5760 5760 5760 5761 5761 5761 5760 5758 5755 5750 5744 5737 5730 5725 5720 5714 5711 5708 5705 5702 5699 5695 5692 5688 5684 5682 5678 5673 5668 5665 5663 5658 5653 5650 5649 5647 5645 5643 5640 5638
5745 5748 5750 5752 5755 5754 5755 5756 5756 5756 5754 5750 5744 5737 5730 5723 5717 5711 5705 5702 5700 5696 5692 5690 5686 5683 5680 5676 5673 5671 5667 5661 5655 5654 5652 5647 5644 5639 5635 5633 5631 5629 5627
5736 5739 5741 5744 5746 5747 5749 5750 5751 5750 5748 5744 5738 5732 5724 5715 5708 5701 5695 5691 5688 5686 5683 5680 5677 5673 5670 5667 5664 5661 5659 5655 5648 5643 5640 5638 5636 5631 5625 5621 5618 5616 5614
5726 5729 5732 5735 5737 5738 5741 5742 5742 5741 5739 5736 5731 5724 5716 5707 5699 5692 5686 5680 5676 5674 5671 5669 5666 5663 5659 5656 5652 5650 5647 5644 5639 5634 5630 5626 5621 5618 5616 5610 5605 5602 5599
5716 5718 5721 5724 5725 5727 5729 5731 5731 5729 5727 5724 5719 5713 5705 5696 5689 5681 5674 5669 5664 5661 5658 5656 5653 5650 5647 5643 5640 5637 5633 5629 5626 5621 5617 5614 5610 5605 5602 5597 5591 5588 5585
5703 5705 5707 5708 5709 5711 5714 5716 5715 5712 5711 5708 5702 5697 5691 5685 5678 5669 5663 5657 5652 5647 5644 5642 5639 5635 5632 5629 5626 5622 5618 5615 5611 5606 5602 5598 5594 5590 5586 5582 5577 5573 5569
5690 5690 5691 5692 5694 5695 5697 5698 5697 5694 5693 5690 5684 5679 5675 5669 5662 5656 5650 5644 5638 5634 5631 5628 5624 5621 5618 5614 5610 5606 5602 5598 5594 5590 5586 5582 5577 5574 5570 5566 5561 5558 5554
5676 5676 5676 5677 5678 5679 5679 5679 5679 5676 5672 5669 5667 5662 5656 5650 5645 5640 5634 5628 5623 5619 5616 5613 5609 5605 5601 5597 5594 5589 5584 5581 5577 5572 5569 5564 5559 5556 5552 5548 5544 5541 5538
5661 5661 5660 5660 5661 5661 5661 5661 5659 5656 5652 5650 5648 5644 5638 5632 5628 5623 5617 5612 5607 5603 5600 5596 5592 5587 5583 5579 5576 5571 5567 5563 5559 5555 5551 5547 5542 5538 5534 5529 5525 5521 5518
5646 5644 5643 5643 5643 5643 5641 5640 5639 5638 5634 5630 5628 5625 5619 5614 5609 5604 5600 5595 5590 5586 5582 5578 5574 5570 5565 5561 5557 5553 5549 5546 5541 5537 5533 5528 5524 5520 5515 5511 5507 5503 5499
5631 5629 5628 5627 5627 5625 5624 5622 5620 5618 5615 5611 5609 5605 5600 5596 5592 5587 5582 5578 5573 5568 5564 5560 5555 5551 5547 5543 5539 5535 5531 5527 5523 5518 5515 5511 5507 5502 5498 5494 5490 5486 5482
5618 5616 5614 5612 5610 5608 5606 5603 5600 5598 5596 5594 5591 5588 5583 5578 5574 5569 5565 5561 5556 5551 5547 5543 5538 5533 5530 5526 5521 5517 5512 5508 5504 5500 5497 5493 5489 5486 5482 5478 5475 5471 5468
5605 5602 5599 5596 5594 5592 5589 5586 5583 5581 5579 5576 5573 5569 5565 5561 5556 5552 5548 5543 5539 5534 5529 5525 5521 5517 5513 5509 5504 5499 5495 5491 5487 5483 5480 5476 5473 5470 5467 5464 5461 5457 5453
5592 5588 5584 5581 5578 5576 5573 5570 5567 5564 5561 5558 5555 5551 5547 5544 5539 5535 5531 5527 5523 5518 5513 5509 5505 5500 5496 5492 5487 5483 5478 5473 5470 5466 5463 5460 5459 5457 5453 5451 5448 5444 5441
5580 5575 5570 5567 5564 5561 5558 5554 5551 5548 5545 5542 5538 5534 5531 5527 5523 5519 5514 5510 5506 5502 5498 5493 5489 5484 5480 5476 5472 5467 5462 5457 5453 5450 5447 5445 5444 5441 5438 5436 5434 5433 5432
5568 5563 5558 5554 5550 5547 5544 5540 5537 5534 5531 5527 5523 5520 5516 5512 5508 5504 5499 5495 5491 5487 5482 5478 5474 5469 5465 5460 5456 5451 5446 5442 5438 5435 5432 5431 5429 5426 5424 5423 5423 5424 5424
5555 5550 5546 5541 5537 5534 5530 5527 5524 5521 5518 5514 5510 5506 5502 5498 5494 5490 5485 5481 5476 5472 5468 5463 5459 5455 5450 5446 5441 5436 5432 5428 5425 5422 5420 5418 5417 5417 5415 5415 5416 5418 5420
5543 5538 5534 5530 5526 5522 5519 5516 5512 5509 5506 5502 5498 5494 5490 5486 5482 5478 5473 5469 5464 5460 5455 5451 5446 5441 5436 5432 5428 5423 5419 5416 5414 5413 5412 5410 5410 5410 5408 5409 5411 5414 5419
5532 5527 5523 5520 5515 5512 5509 5506 5501 5498 5495 5491 5487 5483 5479 5475 5471 5466 5462 5457 5453 5449 5444 5439 5434 5429 5423 5419 5415 5411 5408 5406 5406 5406 5407 5407 5406 5407 5407 5407 5409 5412 5417
5521 5517 5514 5509 5506 5503 5500 5496 5492 5488 5484 5481 5477 5473 5469 5465 5461 5457 5452 5448 5443 5438 5433 5427 5422 5416 5412 5407 5404 5401 5399 5398 5399 5400 5402 5404 5405 5406 5408 5408 5410 5412 5415
5512 5509 5505 5500 5496 5494 5491 5486 5482 5479 5476 5472 5469 5465 5460 5457 5453 5448 5443 5438 5434 5428 5422 5417 5412 5407 5403 5400 5397 5395 5394 5394 5394 5397 5399 5402 5404 5407 5410 5411 5413 5415 5417
5504 5500 5497 5492 5489 5486 5483 5479 5475 5471 5468 5464 5460 5456 5452 5448 5444 5440 5436 5431 5425 5420 5415 5410 5405 5402 5398 5395 5393 5392 5392 5392 5393 5396 5398 5402 5406 5409 5412 5415 5416 5419 5420
5497 5493 5490 5486 5482 5479 5476 5472 5468 5465 5461 5457 5452 5449 5445 5442 5438 5434 5430 5425 5420 5415 5411 5406 5402 5398 5395 5393 5391 5391 5392 5393 5395 5398 5401 5405 5408 5411 5414 5417 5419 5421 5421
5491 5487 5483 5479 5476 5472 5469 5466 5463 5459 5455 5451 5447 5444 5440 5437 5433 5429 5424 5421 5416 5412 5407 5403 5399 5396 5394 5392 5390 5390 5392 5393 5395 5398 5403 5407 5410 5413 5416 5419 5421 5423 5425
5486 5481 5477 5473 5470 5467 5464 5461 5458 5454 5450 5447 5444 5440 5437 5433 5430 5425 5421 5417 5414 5411 5407 5402 5399 5396 5394 5393 5393 5394 5395 5397 5399 5401 5404 5407 5409 5411 5414 5417 5421 5424 5426